DIAMANT DEB, 2685

Orbit data source: Space-Track

DIAMANT DEB, 2685 is space debris in LEO originally from a launch on Wed, 15 Feb 1967 UTC launched from the Hamma Guira Space Track Range (HGSTR). Debris objects in space refer to the collection of defunct objects orbiting the Earth. Examples of debris include non-operational satellites, rocket bodies, and fragments generated from explosions, collisions, or faulty payload assembly.

Loading next visibility...
Identifier
2685, 1967-014F
Orbit
LEO
Last TLE update
1 week ago
Origin
Manufacturer
Unknown
Mission
Spacecraft
Bus & Motor
Unknown
Mass
Unknown
Launch date (UTC)
1967-02-15 (58 years ago)
Launch vehicle
Unknown
Launch site
Hamma Guira Space Track Range (HGSTR)
Object type
Payload
Rocket body
Debris
Shape & HBR
Unknown
Radar Cross Section
Small (<0.1 m²)

Expand to show TLE details & history

TLE from 1 week ago
0 DIAMANT DEB
1 02685U 67014F   25183.16657327  .00001704  00000-0  31440-3 0  9992
2 02685  38.9319 131.1324 0363268 209.7785 148.1837 14.32394501917198
Epoch: 2025-07-02T03:59Z
TLE epoch observation values (Epoch: 2025-07-02T03:59:51.93Z)
Latitude
0.00003°
Longitude
150.71449°
Altitude
1,006.633 km
Speed
7.235 km/s
True Right ascension
08h 44m 31s
True Declination
0° 00' 00"
Sunlit
Object was in daylight at epoch
Visualization orbit readout
Latitude
24.90442°
Longitude
137.44716°
Altitude
942.691 km
Speed
7.302 km/s
Apparent Right ascension
09h 11m 30s
Apparent Declination
-5° 25' 20"
Sunlit
Object is in daylight
Visualization observer readout
Local Sidereal Time
23:02:07
Azimuth
43.122° NE
Elevation
-47.474°
Doppler factor
1
Orbital elements
Apogee altitude
1,046.515 km
Perigee altitude
525.996 km
Semi-major axis
7,164.392 km
Eccentricity
0.03633
Inclination
38.9319°
RAAN
131.1324°
Arg. of periapsis
209.7785°
True anomaly
Unknown
Mean anomaly
148.1837°
Eccentric anomaly
Unknown
Mean motion
3.5791 °/min
Orbital period
100.58 mins
BSTAR
0.0003144
Loading maneuver chart data...
Loading SW <> Apogee altitude chart data...
Loading historical data...
Loading historical data...
Loading historical data...
Loading historical data...
Loading historical data...
Loading historical data...
Loading historical data...

DIAMANT DEB Visibility forecast

Observer location: undefined°, undefined°

Span
Click to sort rows by Start time (UTC) header in descending order
Start Az.
Max El. time (UTC)
Max El. Az.
Max El.
End time (UTC)
End Az.
8 mins2025-07-11 19:04:11.658Z182.952° SSW2025-07-11 19:08:11.658Z138.638° SSE19.739°2025-07-11 19:12:11.658Z99.361° ESE
11 mins2025-07-11 20:49:11.658Z228.022° WSW2025-07-11 20:53:11.658Z170.23° S39.177°2025-07-11 21:00:11.658Z83.351° E
12 mins2025-07-11 22:34:11.658Z262.248° W2025-07-11 22:40:11.658Z137.534° SSE44.602°2025-07-11 22:46:11.658Z90.298° ESE
12 mins2025-07-12 00:21:11.658Z273.892° WNW2025-07-12 00:26:11.658Z211.722° SW43.083°2025-07-12 00:33:11.658Z112.552° SE
10 mins2025-07-12 02:08:11.658Z263.811° W2025-07-12 02:12:11.658Z216.852° SW28.989°2025-07-12 02:18:11.658Z149.742° SSE
|